Location: Unspecified
(41.5000°N, 0.0000°E)
Time: 08:22:30
(UTC+00:00)

deb Explorer IX - Pass Details

Date: 02 October 2020
Orbit: 537 x 1106 km, 38.8° (Epoch: 19 October)

Event Time Altitude Azimuth Distance (km) Brightness Sun altitude
Rises 20:36:57 0° 274° (W) 2,843 ? -33.1°
Reaches altitude 10° 20:39:39 10° 260° (W) 1,873 ? -33.5°
Enters shadow 20:40:13 13° 255° (WSW) 1,693 ? -33.6°
